Theta_e
325 324 323 323 321 321 321 318 317 313 315 315 316 315 315 313 315 313 310 305 303 302 302 301 300 299 298 297 296 296 295 294 294 294 293 293 292 292
325 325 324 324 324 322 322 323 321 315 315 315 316 316 316 314 316 315 315 314 307 304 304 302 302 301 300 298 297 297 296 295 294 294 293 293 293 292
326 325 324 327 325 324 322 323 322 322 316 315 316 316 317 315 315 316 316 315 314 312 311 307 303 302 301 300 299 298 297 296 296 295 294 294 293 293
326 326 325 324 327 327 325 322 323 323 323 319 316 316 316 317 316 315 315 315 314 314 313 312 308 304 302 301 301 300 299 297 297 296 296 295 294 294
326 326 325 325 323 325 327 327 326 325 324 322 321 319 317 316 316 315 315 314 315 315 314 313 312 311 308 304 302 301 300 299 298 297 296 296 295 295
325 326 326 326 326 325 325 325 327 327 327 326 326 324 321 318 316 315 315 315 314 314 314 314 314 313 312 309 305 302 301 300 299 299 298 297 296 296
325 325 325 326 326 325 325 323 322 327 327 327 326 325 326 322 319 317 314 314 314 314 314 314 313 313 312 311 307 304 302 301 300 300 299 298 297 297
325 324 325 325 325 326 326 325 325 323 325 325 326 323 325 324 323 320 316 315 316 314 314 314 314 313 313 312 308 305 303 302 302 301 300 299 299 298
326 325 324 325 325 325 326 326 326 324 324 324 324 325 325 325 324 321 319 316 315 315 314 315 315 314 313 312 310 307 303 302 301 301 301 300 299 299
327 328 328 327 326 325 326 326 325 325 324 325 324 325 326 324 322 321 323 322 318 315 316 315 316 316 314 313 312 309 306 303 302 302 301 301 300 300
327 327 329 328 329 328 326 325 323 326 325 325 326 325 325 325 324 321 321 316 318 317 317 317 317 316 315 314 313 312 310 308 304 302 302 302 302 302
326 328 328 328 328 327 327 325 324 323 324 326 325 324 324 325 325 320 320 319 317 317 319 318 318 317 316 315 314 312 311 309 304 301 301 300 299 300
325 326 326 326 326 326 327 326 325 324 324 325 325 324 325 325 324 324 323 319 319 318 320 318 318 317 315 314 313 313 311 309 307 306 302 301 300 299
324 324 324 324 325 324 325 324 323 324 325 325 325 325 324 323 323 324 324 323 319 321 320 319 318 317 316 315 314 313 312 311 309 306 303 302 301 301
322 323 323 322 322 323 323 323 323 322 323 322 323 323 322 323 323 322 322 322 322 321 320 319 318 317 316 315 314 312 311 309 307 305 303 302 301 303
319 319 320 319 319 319 319 320 320 320 320 320 320 321 321 321 321 321 319 318 318 319 319 318 317 316 315 314 314 311 309 307 305 304 303 303 303 301
309 310 311 311 312 312 312 313 313 314 315 316 316 317 318 318 319 319 318 314 315 318 318 319 315 314 312 310 308 306 305 304 302 302 302 302 302 300
305 306 306 306 307 308 309 310 311 311 312 313 313 314 315 316 318 317 316 315 317 316 317 316 314 312 308 306 304 303 303 302 302 301 300 299 299 298
303 302 301 302 302 302 303 304 306 308 310 311 312 313 313 315 314 313 314 314 313 315 313 313 313 307 305 305 304 303 302 301 299 299 298 297 296 296
297 297 297 298 298 299 301 301 302 304 305 307 308 310 311 312 312 312 312 312 312 310 310 308 305 304 303 302 300 298 299 299 298 297 296 296 295 294
294 294 294 294 295 296 297 298 298 299 301 301 303 305 307 307 308 308 307 307 307 305 305 301 300 300 300 299 298 296 295 295 295 294 294 293 292 291
293 293 293 293 293 294 295 296 297 297 298 298 299 300 300 300 300 300 300 300 299 300 299 298 298 299 298 297 295 293 292 292 292 292 292 290 289 288
292 292 292 292 293 293 294 295 295 296 296 297 297 297 297 298 297 297 297 297 297 296 296 295 295 295 294 293 292 291 291 291 289 288 287 285 285 285
Wind_Speed
40 40 39 36 33 31 28 29 29 31 32 31 28 24 20 19 16 19 21 21 23 23 23 23 23 22 23 22 22 22 22 22 22 22 21 21 20 20
38 42 45 42 40 37 34 32 31 34 39 34 31 27 23 24 21 21 22 21 22 23 23 25 26 25 25 25 24 24 23 23 24 24 24 24 23 23
41 39 42 42 45 45 43 39 37 35 40 43 38 33 32 29 27 26 26 25 25 25 25 25 27 27 27 27 28 27 26 26 25 25 26 26 25 25
44 44 42 42 44 45 47 48 47 44 42 45 45 40 39 38 35 34 33 32 31 28 27 27 28 29 30 30 30 30 30 29 27 27 26 27 27 26
40 44 44 44 45 47 46 48 48 50 50 49 48 46 42 42 43 41 40 37 35 33 31 32 31 31 31 33 32 32 32 31 30 29 28 28 28 28
41 42 40 44 44 45 49 49 48 48 48 52 51 50 49 45 45 47 47 43 41 38 36 35 34 33 33 34 34 34 33 31 31 31 31 30 30 29
44 44 44 44 42 40 42 47 49 49 49 50 51 52 52 51 50 50 50 47 44 42 41 41 37 38 37 34 34 33 33 31 29 28 29 29 30 31
44 44 44 45 40 43 40 41 47 47 49 49 49 49 52 54 49 52 52 51 49 49 48 48 43 41 38 34 31 30 30 30 29 28 29 29 28 28
44 43 44 47 48 47 43 44 43 45 46 46 48 49 48 50 52 53 55 54 55 49 45 45 44 40 36 33 28 26 27 28 28 27 27 27 27 27
49 52 53 53 52 45 43 43 42 45 46 49 50 50 54 52 50 48 56 54 52 52 53 51 49 47 40 36 31 28 26 27 27 27 26 26 26 26
49 50 52 54 48 45 44 44 43 47 42 42 51 51 53 57 57 55 55 52 55 55 51 52 52 51 45 40 37 32 30 29 28 27 27 28 28 27
46 50 54 52 54 48 46 44 46 46 46 51 52 52 50 48 58 60 61 58 59 55 57 51 52 50 49 45 42 35 28 23 21 22 23 23 24 28
42 47 48 52 49 52 49 48 51 47 49 53 55 60 64 55 55 56 65 69 65 63 58 46 44 40 42 38 37 37 30 26 26 27 25 27 28 31
35 38 41 38 38 42 49 52 51 51 51 54 60 56 57 60 65 67 63 61 72 69 61 57 55 50 47 42 39 39 40 37 34 31 27 27 29 30
37 38 38 37 38 41 42 45 41 45 48 54 58 57 59 63 65 64 65 62 68 69 68 62 60 55 49 44 40 38 37 37 33 31 29 32 31 30
38 39 43 44 44 46 50 50 51 54 57 61 63 63 61 56 57 60 64 65 70 70 65 61 57 53 46 46 45 41 35 34 31 28 26 28 29 32
29 32 33 35 39 43 46 48 49 50 51 56 58 56 58 57 57 59 62 54 56 52 46 48 53 49 44 38 31 29 26 28 25 25 29 31 28 32
19 18 19 20 22 26 30 36 39 42 45 47 49 50 48 50 49 55 57 57 44 33 41 34 30 39 32 22 20 20 22 24 23 23 25 28 29 21
13 14 14 14 15 15 15 16 18 22 29 33 39 39 42 44 44 45 45 36 27 29 32 26 26 16 16 20 19 19 23 22 18 19 18 15 17 19
20 20 19 18 18 18 19 21 21 19 15 10 7 7 9 19 18 12 12 15 20 20 16 13 11 16 22 19 17 10 13 14 13 11 9 9 9 7
24 23 22 20 19 19 17 15 15 15 17 16 8 7 3 2 3 6 7 8 9 11 15 15 15 18 19 10 3 1 3 4 5 5 2 4 6 7
21 22 22 23 23 21 19 19 18 16 13 10 9 9 8 5 2 5 6 8 12 14 15 10 6 5 3 7 9 9 9 10 11 11 9 8 7 7
20 19 20 22 23 25 24 21 19 18 18 17 14 12 11 10 10 10 11 12 13 15 14 14 11 10 14 15 17 18 16 14 12 11 12 11 8 5
Wind_Direction
249 248 249 251 248 247 250 252 257 259 263 268 271 274 274 267 267 270 271 265 261 261 262 265 268 270 270 271 272 273 273 273 272 272 270 269 269 270
252 254 251 253 254 251 249 252 254 254 262 268 269 275 276 270 268 266 268 270 262 261 265 266 266 269 271 272 272 273 273 272 272 272 272 271 269 268
251 252 262 257 252 253 252 253 252 252 255 262 266 269 269 265 264 268 266 265 264 266 271 270 269 268 268 269 271 271 270 269 270 271 271 271 271 269
254 252 255 260 259 259 253 252 255 255 254 259 263 264 266 270 272 270 270 268 266 268 268 271 270 269 269 269 270 268 267 267 266 266 268 270 271 270
265 259 259 258 258 255 256 254 255 256 256 255 258 263 263 264 267 269 270 266 264 267 268 268 268 271 272 271 269 269 266 265 265 265 266 268 269 270
267 261 263 261 261 265 257 256 259 261 261 258 258 258 261 262 263 266 266 265 265 267 268 268 271 273 273 270 269 268 269 265 265 267 268 268 269 269
266 263 263 265 266 270 265 261 256 261 262 260 262 258 258 255 256 261 263 266 267 266 268 269 270 271 273 274 270 265 267 269 267 268 269 269 268 267
266 259 263 267 268 268 266 265 263 260 261 262 265 259 262 261 260 260 261 260 261 267 262 271 268 272 273 274 276 271 266 266 267 267 267 268 271 271
266 266 266 267 270 272 271 267 263 263 262 259 265 263 263 267 267 263 262 259 262 268 266 270 271 273 273 274 275 274 268 264 262 265 267 267 270 272
274 274 272 270 269 269 271 272 271 267 261 256 257 259 261 261 260 268 269 269 269 264 265 265 269 268 269 272 273 273 272 267 264 263 266 269 271 273
272 273 273 277 275 269 265 269 271 272 272 264 262 269 269 266 260 266 258 252 259 260 259 259 263 267 268 271 272 271 272 271 268 266 265 266 268 271
275 273 273 274 274 274 264 262 266 271 273 273 277 278 274 269 264 252 255 252 252 255 259 254 258 260 263 270 272 275 273 270 272 267 265 267 272 270
278 275 276 276 277 276 269 263 265 275 276 273 275 274 276 272 275 268 259 250 249 249 255 254 257 257 255 259 269 280 280 278 276 280 279 276 275 271
273 279 280 281 269 274 266 273 274 275 272 269 266 267 262 263 273 269 270 271 248 253 254 255 254 254 258 259 259 272 279 279 277 280 280 279 276 273
268 268 271 269 269 262 263 266 266 271 270 271 264 268 268 267 271 265 264 269 253 250 249 250 254 256 255 255 261 269 271 271 272 276 273 275 277 279
272 272 273 274 272 273 274 272 270 270 270 270 270 269 272 269 262 265 253 249 245 242 247 244 246 248 248 256 266 266 264 263 268 272 276 277 272 281
297 285 284 284 284 284 285 284 281 280 278 275 273 272 271 268 265 257 248 233 235 243 242 248 246 250 253 255 260 259 265 268 270 270 270 268 262 270
323 319 314 309 302 296 288 283 280 279 278 277 276 277 276 272 263 244 239 234 238 242 245 239 253 251 241 244 249 267 267 269 264 254 253 276 285 289
352 6 6 3 359 356 351 349 331 303 290 279 278 278 273 258 236 227 233 229 240 239 254 244 259 228 238 242 247 248 241 231 266 290 291 282 297 299
23 11 0 349 339 331 322 319 324 338 356 349 298 257 234 232 213 217 231 248 254 250 240 232 228 239 238 227 204 240 265 293 291 300 311 304 297 297
23 21 16 11 11 10 0 343 332 325 310 304 321 327 315 302 168 200 218 227 218 239 226 212 186 190 202 221 273 106 337 318 318 341 19 76 94 52
24 20 20 21 19 18 18 18 15 15 9 349 317 295 283 280 203 152 200 197 166 164 172 183 223 234 191 129 114 122 101 90 93 81 61 55 56 59
19 20 22 24 25 26 26 26 27 30 33 32 31 42 53 66 74 87 97 110 116 118 121 113 102 103 105 112 115 109 104 94 95 95 80 65 56 52